DW1886 Weather Reports


time (UTC)temp
C
wind
direction
speed
KPH
gust
KPH
rain 1hr
cm
rain 24hr
cm
rain mn
cm
humidity
%
barometer
mb
20260503185046 17 116 3.2 12.9 0.00 0.00 0.00 33 1018.2
20260503185032 17 269 3.2 9.7 0.00 0.00 0.00 49 1016.9
20260503184042 16 278 3.2 9.7 0.00 0.00 0.00 37 1017.8
20260503183541 16 233 4.8 11.3 0.00 0.00 0.00 40 1017.3
20260503183041 16 104 4.8 11.3 0.00 0.00 0.00 44 1017.1
20260503182537 17 267 3.2 11.3 0.00 0.00 0.00 42 1017.6
20260503182038 16 200 4.8 14.5 0.00 0.00 0.00 42 1017.8
20260503181537 16 221 4.8 14.5 0.00 0.00 0.00 42 1017.8
20260503181037 16 207 3.2 9.7 0.00 0.00 0.00 40 1017.7
20260503180537 16 108 3.2 9.7 0.00 0.00 0.00 36 1018.3
20260503180037 16 347 4.8 14.5 0.00 0.00 0.00 42 1018.5
20260503175537 16 293 6.4 17.7 0.00 0.00 0.00 37 1018.6
20260503175037 16 286 6.4 17.7 0.00 0.00 0.00 42 1017.8
20260503174537 16 237 4.8 12.9 0.00 0.00 0.00 42 1017.1
20260503174256 16 179 3.2 11.3 0.00 0.00 0.00 44 1018.0
20260503173535 16 208 4.8 11.3 0.00 0.00 0.00 40 1018.4
20260503173037 16 189 3.2 11.3 0.00 0.00 0.00 42 1018.5
20260503172538 16 217 3.2 9.7 0.00 0.00 0.00 42 1018.5
20260503172037 16 95 3.2 9.7 0.00 0.00 0.00 43 1018.4
20260503171537 16 224 3.2 9.7 0.00 0.00 0.00 51 1018.1
20260503171037 15 178 3.2 9.7 0.00 0.00 0.00 47 1018.0
20260503170537 15 175 4.8 16.1 0.00 0.00 0.00 42 1018.7
20260503150532 12 315 4.8 14.5 0.00 0.00 0.00 58 1019.0
20260503150251 12 236 4.8 12.9 0.00 0.00 0.00 57 1018.8
20260503140249 10 317 4.8 12.9 0.00 0.00 0.00 56 1019.0
20260503131022 8 307 1.6 4.8 0.00 0.00 0.00 67 1018.7
20260503131001 8 0 1.6 4.8 0.00 0.00 0.00 66 1019.0
20260503130446 7 279 3.2 8.0 0.00 0.00 0.00 69 1018.6
20260503130416 8 338 1.6 6.4 0.00 0.00 0.00 67 1018.7
20260503110736 0 88 1.6 3.2 0.00 0.00 0.00 95 1016.7
20260503110228 0 80 1.6 3.2 0.00 0.00 0.00 95 1016.7
20260503100204 0 100 0.0 3.2 0.00 0.00 0.00 95 1016.1
20260503090418 0 17 0.0 3.2 0.00 0.00 0.00 95 1016.1
20260503081404 0 82 0.0 1.6 0.00 0.00 0.00 94 1016.3
20260503080902 0 19 0.0 3.2 0.00 0.00 0.00 93 1016.3
20260503080404 0 66 0.0 3.2 0.00 0.00 0.00 94 1016.2
20260503072850 0 0 0.0 0.0 0.00 0.00 0.00 93 1016.4
20260503072351 1 0 0.0 1.6 0.00 0.00 0.00 93 1016.4
20260503071850 1 0 0.0 1.6 0.00 0.00 0.00 93 1016.4
20260503071353 1 69 0.0 1.6 0.00 0.00 0.00 93 1016.4
20260503070851 1 0 0.0 1.6 0.00 0.00 0.00 92 1016.5
20260503070350 1 68 0.0 1.6 0.00 0.00 0.00 93 1016.5
20260503055056 1 0 0.0 0.0 0.00 0.00 0.00 92 1016.7
20260503054336 1 0 0.0 1.6 0.00 0.00 0.00 92 1016.8
20260503053830 1 0 0.0 1.6 0.00 0.00 0.00 92 1016.8
20260503053322 1 37 0.0 1.6 0.00 0.00 0.00 91 1016.9
20260503052822 1 0 0.0 1.6 0.00 0.00 0.00 92 1016.8
20260503052322 1 0 0.0 0.0 0.00 0.00 0.00 92 1016.8
20260503051821 1 0 0.0 1.6 0.00 0.00 0.00 91 1016.8
20260503051321 1 0 0.0 3.2 0.00 0.00 0.00 91 1016.8
20260503050821 1 68 0.0 3.2 0.00 0.00 0.00 91 1016.9
20260503050319 1 64 0.0 3.2 0.00 0.00 0.00 91 1016.9
20260503045818 1 0 1.6 3.2 0.00 0.00 0.00 91 1016.9
20260503045315 1 7 1.6 3.2 0.00 0.00 0.00 91 1016.9
20260503045046 1 75 1.6 3.2 0.00 0.00 0.00 91 1016.8
20260503044312 1 0 1.6 3.2 0.00 0.00 0.00 91 1016.9
20260503044036 1 0 1.6 3.2 0.00 0.00 0.00 91 1016.9
20260503043306 1 66 0.0 1.6 0.00 0.00 0.00 91 1016.9
20260503042806 2 1 0.0 3.2 0.00 0.00 0.00 91 1016.9
20260503042307 2 0 1.6 3.2 0.00 0.00 0.00 91 1016.8
20260503041807 2 79 1.6 3.2 0.00 0.00 0.00 91 1016.9
20260503041307 2 71 0.0 3.2 0.00 0.00 0.00 90 1017.0
20260503040806 2 0 0.0 3.2 0.00 0.00 0.00 90 1017.0
20260503040307 2 0 0.0 1.6 0.00 0.00 0.00 89 1017.0
20260503035805 2 20 1.6 3.2 0.00 0.00 0.00 89 1017.1
20260503035258 2 0 1.6 4.8 0.00 0.00 0.00 89 1017.1
20260503034754 2 78 1.6 4.8 0.00 0.00 0.00 88 1017.1
20260503034255 2 65 1.6 3.2 0.00 0.00 0.00 87 1017.1
20260503034019 2 64 1.6 3.2 0.00 0.00 0.00 87 1017.1
20260503033252 2 0 1.6 3.2 0.00 0.00 0.00 87 1017.1
20260503032752 2 83 1.6 3.2 0.00 0.00 0.00 86 1017.2
20260503032252 2 0 0.0 1.6 0.00 0.00 0.00 86 1017.2
20260503032020 2 0 0.0 3.2 0.00 0.00 0.00 85 1017.2
20260503031251 2 0 1.6 3.2 0.00 0.00 0.00 86 1017.2
20260503030752 2 66 0.0 3.2 0.00 0.00 0.00 86 1017.2
20260503030252 2 0 0.0 0.0 0.00 0.00 0.00 85 1017.2
20260503025752 2 0 0.0 1.6 0.00 0.00 0.00 84 1017.3
20260503025252 3 72 0.0 1.6 0.00 0.00 0.00 83 1017.3
20260503024752 3 0 0.0 0.0 0.00 0.00 0.00 83 1017.3
20260503024253 3 0 0.0 1.6 0.00 0.00 0.00 83 1017.3
20260503023752 3 73 3.2 4.8 0.00 0.00 0.00 83 1017.3
20260503023252 3 55 1.6 4.8 0.00 0.00 0.00 83 1017.3
20260503022750 3 57 1.6 3.2 0.00 0.00 0.00 81 1017.3
20260503022249 3 79 1.6 3.2 0.00 0.00 0.00 80 1017.3
20260503022008 3 72 1.6 3.2 0.00 0.00 0.00 79 1017.4
20260503021246 3 52 1.6 3.2 0.00 0.00 0.00 79 1017.3
20260503021016 4 72 0.0 3.2 0.00 0.00 0.00 78 1017.3
20260503020247 4 88 1.6 3.2 0.00 0.00 0.00 79 1017.3
20260503015748 4 64 1.6 3.2 0.00 0.00 0.00 78 1017.3
20260503015508 4 70 1.6 3.2 0.00 0.00 0.00 78 1017.3
20260503014746 5 60 1.6 3.2 0.00 0.00 0.00 77 1017.3
20260503014247 5 71 1.6 3.2 0.00 0.00 0.00 76 1017.2
20260503013747 5 53 1.6 3.2 0.00 0.00 0.00 74 1017.2
20260503013246 5 71 3.2 3.2 0.00 0.00 0.00 74 1017.2
20260503012741 5 56 1.6 3.2 0.00 0.00 0.00 73 1017.2
20260503012240 5 0 1.6 3.2 0.00 0.00 0.00 71 1017.2
20260503012001 6 46 1.6 3.2 0.00 0.00 0.00 68 1017.2
20260503011234 6 15 1.6 4.8 0.00 0.00 0.00 66 1017.2
20260503010736 6 62 1.6 4.8 0.00 0.00 0.00 65 1017.1
20260503010236 6 20 0.0 3.2 0.00 0.00 0.00 63 1017.0
20260503005736 6 0 0.0 3.2 0.00 0.00 0.00 62 1016.9
20260503005455 7 357 0.0 3.2 0.00 0.00 0.00 59 1017.1
20260503004736 7 0 0.0 6.4 0.00 0.00 0.00 59 1017.0
20260503004236 7 8 1.6 6.4 0.00 0.00 0.00 57 1017.2
20260503003736 7 294 1.6 6.4 0.00 0.00 0.00 55 1017.3
20260503003454 7 316 3.2 6.4 0.00 0.00 0.00 54 1017.3
20260503002735 8 0 3.2 8.0 0.00 0.00 0.00 53 1017.4
20260503002234 8 293 1.6 8.0 0.00 0.00 0.00 55 1017.4
20260503002006 8 26 1.6 8.0 0.00 0.00 0.00 55 1017.2
20260503001233 8 9 3.2 11.3 0.00 0.00 0.00 53 1017.4
20260503001002 8 302 4.8 11.3 0.00 0.00 0.00 52 1017.4
20260503000234 8 40 4.8 12.9 0.00 0.00 0.00 50 1017.5
20260502235734 8 3 4.8 12.9 0.00 0.00 0.00 50 1017.5
20260502235233 8 28 4.8 11.3 0.00 0.00 0.00 51 1017.5
20260502234734 8 334 3.2 11.3 0.00 0.00 0.00 49 1017.6
20260502234500 8 71 3.2 8.0 0.00 0.00 0.00 50 1017.5
20260502233734 8 88 4.8 8.0 0.00 0.00 0.00 50 1017.4
20260502233232 9 335 4.8 14.5 0.00 0.00 0.00 48 1017.6
20260502232731 9 82 4.8 14.5 0.00 0.00 0.00 52 1017.4
20260502232459 9 243 4.8 12.9 0.00 0.00 0.00 46 1017.7
20260502231728 9 16 4.8 12.9 0.00 0.00 0.00 46 1017.5
20260502231229 9 328 4.8 12.9 0.00 0.00 0.00 47 1017.6
20260502230728 9 31 4.8 16.1 0.00 0.00 0.00 46 1017.6
20260502230232 10 342 4.8 16.1 0.00 0.00 0.00 47 1017.8
20260502225956 10 11 4.8 11.3 0.00 0.00 0.00 48 1017.6
20260502225228 9 93 4.8 11.3 0.00 0.00 0.00 45 1017.5
20260502224728 9 26 4.8 11.3 0.00 0.00 0.00 45 1017.5
20260502224228 9 57 4.8 11.3 0.00 0.00 0.00 45 1017.6
20260502223953 10 45 4.8 12.9 0.00 0.00 0.00 47 1017.6
20260502223225 10 0 4.8 12.9 0.00 0.00 0.00 45 1017.7
20260502222725 10 38 4.8 9.7 0.00 0.00 0.00 46 1017.5
20260502222227 10 22 6.4 14.5 0.00 0.00 0.00 45 1017.6
20260502221726 10 34 6.4 16.1 0.00 0.00 0.00 41 1018.0
20260502221226 10 296 6.4 16.1 0.00 0.00 0.00 46 1017.6
20260502220728 10 325 6.4 12.9 0.00 0.00 0.00 44 1017.7
20260502220227 10 324 6.4 14.5 0.00 0.00 0.00 44 1017.5
20260502215728 10 26 6.4 16.1 0.00 0.00 0.00 42 1017.8
20260502215227 11 344 4.8 16.1 0.00 0.00 0.00 42 1017.7
20260502214727 11 78 3.2 11.3 0.00 0.00 0.00 42 1017.9
20260502214226 10 312 4.8 12.9 0.00 0.00 0.00 40 1017.7
20260502213726 10 81 4.8 12.9 0.00 0.00 0.00 42 1017.6
20260502213224 10 249 4.8 11.3 0.00 0.00 0.00 46 1017.4
20260502212723 10 39 4.8 11.3 0.00 0.00 0.00 40 1017.7
20260502212219 10 298 4.8 14.5 0.00 0.00 0.00 43 1017.9
20260502211722 10 358 6.4 14.5 0.00 0.00 0.00 42 1017.7
20260502211224 10 24 6.4 14.5 0.00 0.00 0.00 42 1017.6
20260502210725 10 11 6.4 14.5 0.00 0.00 0.00 42 1017.6
20260502210222 10 36 8.0 16.1 0.00 0.00 0.00 40 1017.7
20260502205723 10 86 6.4 16.1 0.00 0.00 0.00 44 1017.3
20260502205448 11 304 6.4 12.9 0.00 0.00 0.00 39 1017.7
20260502204722 11 313 4.8 12.9 0.00 0.00 0.00 44 1017.5
20260502204223 10 66 4.8 14.5 0.00 0.00 0.00 46 1017.8
20260502203723 10 272 6.4 14.5 0.00 0.00 0.00 42 1017.9
20260502203223 10 268 6.4 14.5 0.00 0.00 0.00 39 1017.9
20260502202722 11 0 6.4 14.5 0.00 0.00 0.00 40 1018.0
20260502202217 11 36 6.4 12.9 0.00 0.00 0.00 40 1018.0
20260502201719 11 287 6.4 12.9 0.00 0.00 0.00 39 1018.0
20260502201216 10 276 4.8 11.3 0.00 0.00 0.00 36 1018.3
20260502200943 10 265 4.8 12.9 0.00 0.00 0.00 44 1017.7
20260502200217 10 312 4.8 12.9 0.00 0.00 0.00 41 1017.4
20260502195717 10 254 4.8 17.7 0.00 0.00 0.00 50 1017.5
20260502195218 10 291 6.4 17.7 0.00 0.00 0.00 44 1017.8
20260502194947 10 93 6.4 16.1 0.00 0.00 0.00 42 1018.2
20260502194217 11 356 4.8 16.1 0.00 0.00 0.00 41 1018.0
20260502193717 11 303 4.8 9.7 0.00 0.00 0.00 41 1017.7
20260502193213 11 119 4.8 14.5 0.00 0.00 0.00 42 1017.8
20260502192942 11 49 6.4 14.5 0.00 0.00 0.00 41 1018.0
20260502192435 11 24 6.4 14.5 0.00 0.00 0.00 40 1018.5
20260502191711 11 282 4.8 14.5 0.00 0.00 0.00 42 1018.4
20260502191432 11 347 4.8 16.1 0.00 0.00 0.00 45 1017.9
20260502190933 11 159 6.4 16.1 0.00 0.00 0.00 41 1018.0
20260502190209 11 241 6.4 14.5 0.00 0.00 0.00 46 1018.4
20260502185708 11 134 6.4 20.9 0.00 0.00 0.00 41 1018.4